Weather History for KEDJ - June, 2013

Change the Weather History Date:

Sunday, June 16, 2013

  Actual Average (KDAY) Record (KDAY)
Temperature  
Mean Temperature 72 °F 71 °F  
Max Temperature 77 °F 81 °F 96 °F (1913)
Min Temperature 66 °F 61 °F 42 °F (1908)
Degree Days  
Heating Degree Days 0 1  
Month to date heating degree days 22  
Since 1 June heating degree days 22  
Since 1 July heating degree days 5642  
Cooling Degree Days 6 6  
Month to date cooling degree days 80  
Year to date cooling degree days 150  
Since 1 June cooling degree days 80  
Growing Degree Days 22 (Base 50)    
Moisture  
Dew Point 65 °F    
Average Humidity 83    
Maximum Humidity 100    
Minimum Humidity 65    
Precipitation  
Precipitation 0.05 in 0.14 in 1.02 in (2009)
Month to date precipitation 2.24  
Year to date precipitation 19.28  
Snow  
Snow 0.00 in 0.00 in 0.00 in ()
Month to date snowfall 0.0  
Since 1 June snowfall 0.0  
Since 1 July snowfall 23.3  
Snow Depth -    
Sea Level Pressure  
Sea Level Pressure 29.94 in    
Wind  
Wind Speed 10 mph (SW)    
Max Wind Speed 20 mph    
Max Gust Speed 25 mph    
Visibility 10 miles    
Events      
T = Trace of Precipitation, MM = Missing Value Source: NWS Daily Summary

Daily Weather History Graph

Daily Weather History Graph

Search for Another Location

Airport or City:

Trip Planner

Search our weather history database for the weather conditions in past years. The results will help you decide how hot, cold, wet, or windy it might be!

Date:

Astronomy

Jun. 16, 2013 Rise Set
Actual Time 6:04 AM EDT 9:07 PM EDT
Civil Twilight 5:31 AM EDT 9:40 PM EDT
Nautical Twilight 4:49 AM EDT 10:22 PM EDT
Astronomical Twilight 4:00 AM EDT 11:12 PM EDT
Moon 1:40 PM EDT (6/16) 1:10 AM EDT (6/16)
Length of Visible Light 16h 09m
Length of Day
15h 02m
Waxing Crescent, 49% of the Moon is Illuminated
Jun 16
Waxing Crescent
Jun 16
First Quarter
Jun 23
Full
Jun 30
Last Quarter
Jul 8
New

Hourly Weather History & Observations

Time (EDT) Temp. Dew Point Humidity Pressure Visibility Wind Dir Wind Speed Gust Speed Precip Events Conditions
12:05 AM 68.0 °F 64.4 °F 88% 29.97 in 10.0 mi SE 5.8 mph - 0.00 in   Mostly Cloudy
12:25 AM 68.0 °F 64.4 °F 88% 29.96 in 10.0 mi SE 6.9 mph - 0.00 in   Mostly Cloudy
12:45 AM 66.2 °F 64.4 °F 94% 29.95 in 10.0 mi SSE 8.1 mph - 0.00 in   Scattered Clouds
1:05 AM 69.8 °F 62.6 °F 78% 29.95 in 10.0 mi South 8.1 mph - 0.00 in   Scattered Clouds
1:25 AM 68.0 °F 62.6 °F 83% 29.95 in 10.0 mi South 8.1 mph - 0.00 in   Partly Cloudy
1:45 AM 68.0 °F 62.6 °F 83% 29.95 in 10.0 mi South 8.1 mph - 0.00 in   Clear
2:05 AM 68.0 °F 62.6 °F 83% 29.94 in 10.0 mi South 6.9 mph - 0.00 in   Clear
2:25 AM 66.2 °F 62.6 °F 88% 29.94 in 10.0 mi South 6.9 mph - 0.00 in   Clear
2:45 AM 66.2 °F 62.6 °F 88% 29.93 in 10.0 mi South 6.9 mph - 0.00 in   Partly Cloudy
3:05 AM 68.0 °F 62.6 °F 83% 29.93 in 10.0 mi South 6.9 mph - 0.00 in   Mostly Cloudy
3:25 AM 68.0 °F 62.6 °F 83% 29.92 in 10.0 mi South 6.9 mph - 0.00 in   Overcast
3:45 AM 69.8 °F 62.6 °F 78% 29.91 in 10.0 mi SSW 6.9 mph - 0.00 in   Overcast
4:05 AM 69.8 °F 62.6 °F 78% 29.92 in 10.0 mi SW 8.1 mph - 0.00 in   Overcast
4:25 AM 69.8 °F 62.6 °F 78% 29.93 in 10.0 mi WSW 11.5 mph - 0.00 in   Mostly Cloudy
4:45 AM 69.8 °F 62.6 °F 78% 29.93 in 10.0 mi WSW 16.1 mph 25.3 mph 0.00 in   Mostly Cloudy
5:05 AM 69.8 °F 62.6 °F 78% 29.94 in 10.0 mi West 10.4 mph 18.4 mph 0.00 in   Mostly Cloudy
5:25 AM 69.8 °F 62.6 °F 78% 29.94 in 10.0 mi West 10.4 mph - 0.00 in   Mostly Cloudy
5:45 AM 69.8 °F 62.6 °F 78% 29.93 in 10.0 mi West 9.2 mph - 0.00 in   Clear
6:05 AM 68.0 °F 62.6 °F 83% 29.93 in 10.0 mi SW 6.9 mph - 0.00 in   Partly Cloudy
6:25 AM 66.2 °F 64.4 °F 94% 29.94 in 10.0 mi SW 5.8 mph - 0.00 in   Clear
6:45 AM 66.2 °F 64.4 °F 94% 29.94 in 10.0 mi West 4.6 mph - 0.01 in   Clear
7:05 AM 66.2 °F 64.4 °F 94% 29.95 in 8.0 mi WSW 9.2 mph - 0.00 in   Mostly Cloudy
7:25 AM 66.2 °F 66.2 °F 100% 29.94 in 9.0 mi SSW 9.2 mph - 0.02 in   Scattered Clouds
7:45 AM 66.2 °F 66.2 °F 100% 29.95 in 5.0 mi SSW 10.4 mph - 0.02 in   Mostly Cloudy
8:05 AM 66.2 °F 66.2 °F 100% 29.95 in 9.0 mi SSW 12.7 mph - 0.00 in   Mostly Cloudy
8:25 AM 66.2 °F 66.2 °F 100% 29.95 in 9.0 mi SSW 15.0 mph - 0.00 in   Clear
8:45 AM 66.2 °F 66.2 °F 100% 29.96 in 5.0 mi SW 12.7 mph - 0.02 in   Mostly Cloudy
9:05 AM 66.2 °F 66.2 °F 100% 29.96 in 10.0 mi SW 15.0 mph - 0.00 in   Mostly Cloudy
9:25 AM 66.2 °F 66.2 °F 100% 29.95 in 10.0 mi SW 13.8 mph - 0.00 in   Scattered Clouds
9:45 AM 66.2 °F 66.2 °F 100% 29.96 in 10.0 mi SW 15.0 mph - 0.00 in   Mostly Cloudy
10:05 AM 68.0 °F 66.2 °F 94% 29.95 in 10.0 mi WSW 17.3 mph 21.9 mph 0.00 in   Partly Cloudy
10:25 AM 69.8 °F 64.4 °F 83% 29.95 in 10.0 mi SW 13.8 mph 20.7 mph 0.00 in   Clear
10:45 AM 69.8 °F 64.4 °F 83% 29.95 in 10.0 mi WSW 11.5 mph - 0.00 in   Partly Cloudy
11:05 AM 69.8 °F 64.4 °F 83% 29.95 in 10.0 mi SW 11.5 mph - 0.00 in   Partly Cloudy
11:25 AM 69.8 °F 66.2 °F 88% 29.95 in 7.0 mi SW 13.8 mph 18.4 mph 0.00 in   Partly Cloudy
11:45 AM 69.8 °F 66.2 °F 88% 29.96 in 10.0 mi SW 13.8 mph - 0.00 in   Partly Cloudy
12:05 PM 68.0 °F 66.2 °F 94% 29.95 in 8.0 mi SW 16.1 mph 21.9 mph 0.00 in   Partly Cloudy
12:25 PM 69.8 °F 66.2 °F 88% 29.96 in 10.0 mi SW 13.8 mph 21.9 mph 0.00 in   Clear
12:45 PM 69.8 °F 66.2 °F 88% 29.95 in 10.0 mi SW 15.0 mph - 0.00 in   Partly Cloudy
1:05 PM 71.6 °F 64.4 °F 78% 29.95 in 10.0 mi WSW 15.0 mph 20.7 mph 0.00 in   Scattered Clouds
1:25 PM 73.4 °F 64.4 °F 73% 29.95 in 10.0 mi SW 18.4 mph 23.0 mph 0.00 in   Scattered Clouds
1:45 PM 73.4 °F 64.4 °F 73% 29.95 in 10.0 mi SW 16.1 mph 20.7 mph 0.00 in   Scattered Clouds
2:05 PM 75.2 °F 64.4 °F 69% 29.95 in 10.0 mi SW 18.4 mph 21.9 mph 0.00 in   Partly Cloudy
2:25 PM 75.2 °F 66.2 °F 73% 29.94 in 10.0 mi SW 16.1 mph 24.2 mph 0.00 in   Scattered Clouds
2:45 PM 75.2 °F 66.2 °F 73% 29.94 in 10.0 mi SW 19.6 mph 23.0 mph 0.00 in   Partly Cloudy
3:05 PM 77.0 °F 66.2 °F 69% 29.94 in 10.0 mi WSW 18.4 mph 25.3 mph 0.00 in   Partly Cloudy
3:25 PM 77.0 °F 66.2 °F 69% 29.94 in 10.0 mi WSW 18.4 mph 24.2 mph 0.00 in   Scattered Clouds
3:45 PM 77.0 °F 64.4 °F 65% 29.94 in 10.0 mi SW 16.1 mph 21.9 mph 0.00 in   Mostly Cloudy
4:05 PM 77.0 °F 64.4 °F 65% 29.94 in 10.0 mi SW 16.1 mph 19.6 mph 0.00 in   Mostly Cloudy
4:25 PM 77.0 °F 64.4 °F 65% 29.94 in 10.0 mi SW 16.1 mph 23.0 mph 0.00 in   Mostly Cloudy
4:45 PM 77.0 °F 64.4 °F 65% 29.93 in 10.0 mi SW 15.0 mph 20.7 mph 0.00 in   Scattered Clouds
5:05 PM 77.0 °F 64.4 °F 65% 29.93 in 10.0 mi SW 16.1 mph - 0.00 in   Partly Cloudy
5:25 PM 77.0 °F 64.4 °F 65% 29.93 in 10.0 mi SW 13.8 mph 17.3 mph 0.00 in   Partly Cloudy
5:45 PM 77.0 °F 64.4 °F 65% 29.93 in 10.0 mi WSW 12.7 mph - 0.00 in   Partly Cloudy
6:05 PM 75.2 °F 64.4 °F 69% 29.93 in 10.0 mi SW 12.7 mph - 0.00 in   Partly Cloudy
6:25 PM 75.2 °F 64.4 °F 69% 29.92 in 10.0 mi WSW 12.7 mph - 0.00 in   Partly Cloudy
6:45 PM 75.2 °F 64.4 °F 69% 29.92 in 10.0 mi WSW 10.4 mph - 0.00 in   Partly Cloudy
7:05 PM 77.0 °F 66.2 °F 69% 29.93 in 10.0 mi SW 10.4 mph - 0.00 in   Clear
7:25 PM 75.2 °F 64.4 °F 69% 29.93 in 10.0 mi SW 11.5 mph 18.4 mph 0.00 in   Partly Cloudy
7:45 PM 75.2 °F 66.2 °F 73% 29.93 in 10.0 mi SW 12.7 mph - 0.00 in   Partly Cloudy
8:05 PM 75.2 °F 66.2 °F 73% 29.93 in 10.0 mi WSW 11.5 mph - 0.00 in   Clear
8:25 PM 73.4 °F 66.2 °F 78% 29.93 in 10.0 mi SSW 8.1 mph - 0.00 in   Clear
8:45 PM 73.4 °F 66.2 °F 78% 29.93 in 10.0 mi SW 8.1 mph - 0.00 in   Clear
9:05 PM 71.6 °F 66.2 °F 83% 29.93 in 10.0 mi SSW 8.1 mph - 0.00 in   Clear
9:25 PM 71.6 °F 66.2 °F 83% 29.93 in 10.0 mi SW 6.9 mph - 0.00 in   Partly Cloudy
9:45 PM 71.6 °F 68.0 °F 88% 29.94 in 10.0 mi SSW 5.8 mph - 0.00 in   Partly Cloudy
10:05 PM 69.8 °F 68.0 °F 94% 29.94 in 10.0 mi SSW 5.8 mph - 0.00 in   Clear
10:25 PM 69.8 °F 68.0 °F 94% 29.94 in 10.0 mi SSW 5.8 mph - 0.00 in   Clear
10:45 PM 69.8 °F 69.8 °F 100% 29.95 in 10.0 mi SSW 8.1 mph - 0.00 in   Clear
11:05 PM 69.8 °F 69.8 °F 100% 29.95 in 10.0 mi SSW 4.6 mph - 0.00 in   Clear
11:25 PM 68.0 °F 68.0 °F 100% 29.96 in 10.0 mi SSW 5.8 mph - 0.00 in   Clear
11:45 PM 68.0 °F 68.0 °F 100% 29.95 in 10.0 mi South 6.9 mph - 0.00 in   Scattered Clouds